TimePDT,TemperatureF,Dew PointF,Humidity,Sea Level PressureIn,VisibilityMPH,Wind Direction,Wind SpeedMPH,Gust SpeedMPH,PrecipitationIn,Events,Conditions,WindDirDegrees,DateUTC
12:15 AM,46.4,46.4,100,30.00,10.0,SE,11.5,-,N/A,,Clear,140,2013-04-23 07:15:00
12:35 AM,46.4,46.4,100,30.00,10.0,SE,9.2,-,N/A,,Clear,140,2013-04-23 07:35:00
12:55 AM,48.2,48.2,100,30.00,10.0,ESE,8.1,-,N/A,,Clear,120,2013-04-23 07:55:00
1:15 AM,48.2,48.2,100,30.00,10.0,SSE,5.8,-,N/A,,Clear,150,2013-04-23 08:15:00
1:35 AM,46.4,46.4,100,30.00,10.0,SE,5.8,-,N/A,,Clear,130,2013-04-23 08:35:00
1:55 AM,44.6,44.6,100,30.00,10.0,SE,4.6,-,N/A,,Clear,140,2013-04-23 08:55:00
2:15 AM,44.6,44.6,100,29.99,10.0,SE,5.8,-,N/A,,Clear,140,2013-04-23 09:15:00
2:35 AM,44.6,44.6,100,29.99,10.0,SE,6.9,-,N/A,,Clear,130,2013-04-23 09:35:00
2:55 AM,42.8,42.8,100,29.98,7.0,SSE,6.9,-,N/A,,Clear,150,2013-04-23 09:55:00
3:15 AM,44.6,44.6,100,29.98,10.0,SE,6.9,-,N/A,,Clear,140,2013-04-23 10:15:00
3:35 AM,44.6,44.6,100,29.98,10.0,SSE,8.1,-,N/A,,Clear,150,2013-04-23 10:35:00
3:55 AM,44.6,44.6,100,29.98,10.0,SE,8.1,-,N/A,,Clear,140,2013-04-23 10:55:00
4:15 AM,42.8,42.8,100,29.98,10.0,SE,9.2,-,N/A,,Clear,140,2013-04-23 11:15:00
4:35 AM,41.0,41.0,100,29.98,10.0,SSE,11.5,-,N/A,,Clear,160,2013-04-23 11:35:00
4:55 AM,42.8,42.8,100,29.98,10.0,SSE,9.2,-,N/A,,Clear,150,2013-04-23 11:55:00
5:15 AM,42.8,42.8,100,29.98,10.0,SE,8.1,-,N/A,,Clear,140,2013-04-23 12:15:00
5:35 AM,41.0,41.0,100,29.98,10.0,SE,9.2,-,N/A,,Clear,140,2013-04-23 12:35:00
5:55 AM,41.0,41.0,100,29.98,10.0,SSE,9.2,-,N/A,,Clear,160,2013-04-23 12:55:00
6:15 AM,41.0,41.0,100,29.98,10.0,SSE,9.2,-,N/A,,Clear,150,2013-04-23 13:15:00
6:35 AM,41.0,41.0,100,29.98,10.0,SSE,9.2,-,N/A,,Clear,160,2013-04-23 13:35:00
6:55 AM,39.2,39.2,100,29.99,10.0,SSE,6.9,-,N/A,,Clear,150,2013-04-23 13:55:00
7:15 AM,41.0,41.0,100,29.99,10.0,SSE,9.2,-,N/A,,Clear,160,2013-04-23 14:15:00
7:35 AM,41.0,41.0,100,29.99,10.0,SSE,8.1,-,N/A,,Clear,150,2013-04-23 14:35:00
7:55 AM,44.6,41.0,87,30.00,10.0,SE,9.2,-,N/A,,Clear,140,2013-04-23 14:55:00
8:15 AM,48.2,41.0,76,29.99,10.0,SSE,6.9,-,N/A,,Clear,150,2013-04-23 15:15:00
8:35 AM,48.2,42.8,82,30.00,10.0,SSE,6.9,-,N/A,,Clear,160,2013-04-23 15:35:00
8:55 AM,50.0,44.6,82,30.00,10.0,SE,3.5,-,N/A,,Clear,130,2013-04-23 15:55:00
9:15 AM,53.6,44.6,72,30.00,10.0,SSE,3.5,-,N/A,,Clear,160,2013-04-23 16:15:00
9:35 AM,57.2,42.8,59,30.00,10.0,Calm,Calm,-,N/A,,Clear,0,2013-04-23 16:35:00
9:55 AM,60.8,41.0,48,30.00,10.0,Calm,Calm,-,N/A,,Clear,0,2013-04-23 16:55:00
10:15 AM,64.4,41.0,42,30.00,10.0,NNW,4.6,-,N/A,,Clear,330,2013-04-23 17:15:00
10:35 AM,62.6,42.8,48,30.00,10.0,NW,6.9,-,N/A,,Clear,320,2013-04-23 17:35:00
10:55 AM,62.6,48.2,59,30.00,10.0,NW,8.1,-,N/A,,Clear,310,2013-04-23 17:55:00
11:15 AM,64.4,53.6,68,30.00,10.0,NW,9.2,-,N/A,,Clear,310,2013-04-23 18:15:00
11:35 AM,64.4,50.0,59,29.99,10.0,WNW,10.4,-,N/A,,Clear,300,2013-04-23 18:35:00
11:55 AM,64.4,48.2,56,29.99,10.0,NW,10.4,-,N/A,,Clear,310,2013-04-23 18:55:00
12:15 PM,66.2,48.2,52,29.99,10.0,NW,12.7,-,N/A,,Clear,310,2013-04-23 19:15:00
12:35 PM,64.4,48.2,56,29.98,10.0,NW,17.3,-,N/A,,Clear,310,2013-04-23 19:35:00
12:55 PM,64.4,50.0,59,29.98,10.0,WNW,16.1,20.7,N/A,,Clear,300,2013-04-23 19:55:00
1:15 PM,64.4,46.4,52,29.98,10.0,WNW,18.4,21.9,N/A,,Clear,300,2013-04-23 20:15:00
1:35 PM,62.6,44.6,52,29.98,10.0,WNW,17.3,23.0,N/A,,Clear,290,2013-04-23 20:35:00
1:55 PM,62.6,44.6,52,29.98,10.0,WNW,10.4,-,N/A,,Clear,290,2013-04-23 20:55:00
2:15 PM,62.6,44.6,52,29.98,10.0,Calm,Calm,-,N/A,,Clear,0,2013-04-23 21:15:00
2:35 PM,62.6,44.6,52,29.98,10.0,Calm,Calm,-,N/A,,Clear,0,2013-04-23 21:35:00
2:55 PM,62.6,46.4,55,29.98,10.0,Calm,Calm,-,N/A,,Clear,0,2013-04-23 21:55:00
3:15 PM,62.6,46.4,55,29.98,10.0,Calm,Calm,-,N/A,,Clear,0,2013-04-23 22:15:00
3:35 PM,62.6,44.6,52,29.98,10.0,Calm,Calm,-,N/A,,Clear,0,2013-04-23 22:35:00
3:55 PM,62.6,44.6,52,29.98,10.0,Calm,Calm,-,N/A,,Clear,0,2013-04-23 22:55:00
4:15 PM,62.6,44.6,52,29.97,10.0,Calm,Calm,-,N/A,,Clear,0,2013-04-23 23:15:00
4:35 PM,60.8,42.8,52,29.96,10.0,Calm,Calm,-,N/A,,Clear,0,2013-04-23 23:35:00
4:55 PM,59.0,42.8,55,29.95,10.0,Calm,Calm,-,N/A,,Clear,0,2013-04-23 23:55:00
5:15 PM,59.0,42.8,55,29.96,10.0,Calm,Calm,-,N/A,,Clear,0,2013-04-24 00:15:00
5:35 PM,59.0,41.0,51,29.96,10.0,Calm,Calm,-,N/A,,Clear,0,2013-04-24 00:35:00
5:55 PM,57.2,41.0,55,29.96,10.0,Calm,Calm,-,N/A,,Clear,0,2013-04-24 00:55:00
6:15 PM,57.2,41.0,55,29.96,10.0,Calm,Calm,-,N/A,,Clear,0,2013-04-24 01:15:00
6:35 PM,55.4,41.0,58,29.96,10.0,Calm,Calm,-,N/A,,Clear,0,2013-04-24 01:35:00
6:55 PM,55.4,41.0,58,29.96,10.0,Calm,Calm,-,N/A,,Clear,0,2013-04-24 01:55:00
7:15 PM,53.6,41.0,62,29.95,10.0,Calm,Calm,-,N/A,,Clear,0,2013-04-24 02:15:00
7:35 PM,53.6,39.2,58,29.95,10.0,Calm,Calm,-,N/A,,Clear,0,2013-04-24 02:35:00
7:55 PM,53.6,39.2,58,29.96,9.0,Calm,Calm,-,N/A,,Clear,0,2013-04-24 02:55:00
8:15 PM,51.8,39.2,62,29.96,9.0,Calm,Calm,-,N/A,,Clear,0,2013-04-24 03:15:00
8:35 PM,50.0,39.2,66,29.96,10.0,Calm,Calm,-,N/A,,Clear,0,2013-04-24 03:35:00
8:55 PM,50.0,39.2,66,29.97,10.0,Calm,Calm,-,N/A,,Clear,0,2013-04-24 03:55:00
9:15 PM,50.0,39.2,66,29.97,10.0,Calm,Calm,-,N/A,,Clear,0,2013-04-24 04:15:00
9:35 PM,48.2,39.2,71,29.97,10.0,Calm,Calm,-,N/A,,Clear,0,2013-04-24 04:35:00
9:55 PM,48.2,39.2,71,29.97,10.0,Calm,Calm,-,N/A,,Clear,0,2013-04-24 04:55:00
10:15 PM,48.2,39.2,71,29.97,10.0,Calm,Calm,-,N/A,,Clear,0,2013-04-24 05:15:00
10:35 PM,48.2,39.2,71,29.97,9.0,Calm,Calm,-,N/A,,Clear,0,2013-04-24 05:35:00
10:55 PM,48.2,39.2,71,29.97,8.0,Calm,Calm,-,N/A,,Clear,0,2013-04-24 05:55:00
11:15 PM,46.4,39.2,76,29.97,9.0,Calm,Calm,-,N/A,,Clear,0,2013-04-24 06:15:00
11:35 PM,46.4,39.2,76,29.97,9.0,Calm,Calm,-,N/A,,Clear,0,2013-04-24 06:35:00
11:55 PM,44.6,39.2,81,29.97,9.0,Calm,Calm,-,N/A,,Clear,0,2013-04-24 06:55:00